Location: Brunsbüttel
(52.3892°N, 10.6138°E)
Time: 19:28:33
(UTC+00:00)

Cosmos 1975 - Pass Details

Date: 19 May 2025
Orbit: 487 x 506 km, 82.5° (Epoch: 20 June)

Event Time Altitude Azimuth Distance (km) Brightness Sun altitude
Rises 22:44:18 0° 342° (NNW) 2,577 7.9 -17.3°
Reaches altitude 10° 22:46:32 10° 333° (NNW) 1,689 6.4 -17.4°
Maximum altitude 22:49:53 34° 268° (W) 831 3.7 -17.4°
Enters shadow 22:51:03 27° 230° (SW) 976 3.8 -17.5°
